Oslo Airport, Norway

7:11 PM CEST on September 29, 2016 (GMT +0200)
Gardermoen

Weather History for ENGM - October, 2012

Change the Weather History Date:

Friday, October 5, 2012

  Actual Average Record
Temperature  
Mean Temperature 37 °F -  
Max Temperature 44 °F 51 °F 60 °F (2001)
Min Temperature 30 °F 38 °F 30 °F (2012)
Degree Days  
Heating Degree Days 28    
Moisture  
Dew Point 36 °F    
Average Humidity 97    
Maximum Humidity 100    
Minimum Humidity 87    
Precipitation  
Precipitation 0.00 in - - ()
Sea Level Pressure  
Sea Level Pressure 29.49 in    
Wind  
Wind Speed 2 mph ()    
Max Wind Speed 5 mph    
Max Gust Speed -    
Visibility 2.6 miles    
Events Fog    
Averages and records for this station are not official NWS values.
T = Trace of Precipitation, MM = Missing Value Source: Averaged Metar Reports

Daily Weather History Graph

Daily Weather History Graph

Search for Another Location

Airport or City:

Trip Planner

Search our weather history database for the weather conditions in past years. The results will help you decide how hot, cold, wet, or windy it might be!

Date:

Astronomy

Oct. 05, 2012 Rise Set
Actual Time 7:31 AM CEST 6:35 PM CEST
Civil Twilight 6:49 AM CEST 7:16 PM CEST
Nautical Twilight 6:01 AM CEST 8:05 PM CEST
Astronomical Twilight 5:10 AM CEST 8:55 PM CEST
Moon 8:25 PM CEST (10/5) 1:44 PM CEST (10/5)
Length of Visible Light 12h 26m
Length of Day
11h 03m
Waning Gibbous, 76% of the Moon is Illuminated
Oct 5
Waning Gibbous
Oct 8
Last Quarter
Oct 15
New
Oct 22
First Quarter
Oct 29
Full

Hourly Weather History & Observations

Time (CEST) Temp. Windchill Dew Point Humidity Pressure Visibility Wind Dir Wind Speed Gust Speed Precip Events Conditions
12:12 AM 39.2 °F - 39.2 °F 100% 29.53 in 0.9 mi Variable 1.2 mph - N/A   Mostly Cloudy
12:43 AM 39.2 °F - 37.4 °F 93% 29.53 in 0.9 mi NNE 1.2 mph - N/A   Mostly Cloudy
1:11 AM 37.4 °F - 37.4 °F 100% 29.53 in 0.2 mi Variable 1.2 mph - N/A Fog Fog
1:41 AM 39.2 °F - 39.2 °F 100% 29.53 in 0.1 mi Calm Calm - N/A Fog Fog
2:00 AM 40 °F - 39 °F 94%  in 0 mi South 2.2 mph - - Fog Heavy Fog
2:11 AM 39.2 °F - 39.2 °F 100% 29.53 in 0.1 mi Calm Calm - N/A Fog Fog
2:52 AM 39.2 °F - 37.4 °F 93% 29.53 in 0.1 mi Calm Calm - N/A Fog Fog
3:11 AM 39.2 °F - 37.4 °F 93% 29.53 in 0.2 mi Calm Calm - N/A Fog Fog
3:43 AM 37.4 °F - 37.4 °F 100% 29.53 in 0.2 mi Variable 1.2 mph - N/A Fog Fog
4:11 AM 35.6 °F - 35.6 °F 100% 29.53 in 0.3 mi Variable 2.3 mph - N/A Fog Fog
4:43 AM 35.6 °F - 35.6 °F 100% 29.53 in 0.6 mi Calm Calm - N/A Fog Fog
5:11 AM 33.8 °F - 33.8 °F 100% 29.53 in 0.3 mi Variable 1.2 mph - N/A Fog Fog
5:41 AM 32.0 °F - 32.0 °F 100% 29.53 in 0.4 mi North 1.2 mph - N/A Fog Fog
6:13 AM 32.0 °F - 32.0 °F 100% 29.53 in 0.6 mi Variable 2.3 mph - N/A Fog Fog
6:40 AM 32.0 °F - 32.0 °F 100% 29.53 in 0.2 mi Calm Calm - N/A Fog Fog
7:12 AM 32.0 °F - 32.0 °F 100% 29.53 in 0.2 mi Variable 2.3 mph - N/A Fog Fog
7:21 AM 32.0 °F - 32.0 °F 100% 29.53 in 0.2 mi Variable 2.3 mph - N/A Fog Fog
7:41 AM 32.0 °F - 32.0 °F 100% 29.53 in 0.2 mi Variable 1.2 mph - N/A Fog Fog
8:00 AM 32 °F - 31 °F 96%  in 0 mi ESE 2.2 mph - - Fog Partial Fog
8:18 AM 30.2 °F - 30.2 °F 100% 29.53 in 0.2 mi Variable 1.2 mph - N/A Fog Fog
8:43 AM 32.0 °F - 32.0 °F 100% 29.53 in 0.3 mi Variable 1.2 mph - N/A Fog Fog
9:16 AM 35.6 °F - 35.6 °F 100% 29.53 in 0.6 mi Calm Calm - N/A   Scattered Clouds
9:44 AM 33.8 °F - 33.8 °F 100% 29.53 in 3.7 mi Variable 2.3 mph - N/A Fog Patches of Fog
10:16 AM 35.6 °F - 33.8 °F 93% 29.53 in 0.2 mi Variable 2.3 mph - N/A Fog Fog
10:41 AM 35.6 °F 32.8 °F 35.6 °F 100% 29.53 in 0.2 mi South 3.5 mph - N/A Fog Fog
11:11 AM 37.4 °F 34.9 °F 35.6 °F 93% 29.53 in 0.2 mi South 3.5 mph - N/A Fog Fog
11:41 AM 37.4 °F 34.9 °F 35.6 °F 93% 29.53 in 0.2 mi South 3.5 mph - N/A Fog Fog
12:16 PM 37.4 °F 33.8 °F 37.4 °F 100% 29.50 in 0.7 mi SSE 4.6 mph - N/A Fog Patches of Fog
12:45 PM 39.2 °F 37.0 °F 37.4 °F 93% 29.50 in 2.2 mi Variable 3.5 mph - N/A   Overcast
1:19 PM 39.2 °F 35.9 °F 39.2 °F 100% 29.50 in 3.1 mi South 4.6 mph - N/A   Overcast
1:46 PM 41.0 °F 39.0 °F 39.2 °F 93% 29.50 in 3.1 mi South 3.5 mph - N/A   Overcast
2:00 PM 40 °F - 40 °F 99%  in 6 mi SSW 4.5 mph - -   Partly Cloudy
2:16 PM 41.0 °F 38.0 °F 39.2 °F 93% 29.50 in 4.3 mi South 4.6 mph - N/A   Overcast
2:44 PM 41.0 °F 39.0 °F 41.0 °F 100% 29.47 in 6.2 mi SE 3.5 mph - N/A   Scattered Clouds
3:14 PM 41.0 °F - 39.2 °F 93% 29.47 in 6.2 mi Variable 2.3 mph - N/A   Scattered Clouds
3:41 PM 42.8 °F - 41.0 °F 93% 29.47 in 6.2 mi Variable 2.3 mph - N/A   Scattered Clouds
4:12 PM 42.8 °F 41.1 °F 41.0 °F 93% 29.47 in 6.2 mi NW 3.5 mph - N/A   Scattered Clouds
4:40 PM 44.6 °F - 41.0 °F 87% 29.47 in 6.2 mi Variable 2.3 mph - N/A   Partly Cloudy
5:14 PM 42.8 °F - 41.0 °F 93% 29.44 in 6.2 mi Variable 2.3 mph - N/A   Partly Cloudy
5:21 PM 42.8 °F - 41.0 °F 93% 29.44 in 6.2 mi Variable 2.3 mph - N/A   Partly Cloudy
5:41 PM 41.0 °F - 39.2 °F 93% 29.44 in 0.2 mi Variable 1.2 mph - N/A Fog Fog
6:12 PM 39.2 °F - 39.2 °F 100% 29.44 in 6.2 mi Variable 2.3 mph - N/A   Partly Cloudy
6:41 PM 39.2 °F - 37.4 °F 93% 29.44 in 6.2 mi Variable 2.3 mph - N/A Fog Partly Cloudy
7:11 PM 39.2 °F - 39.2 °F 100% 29.44 in 6.2 mi Calm Calm - N/A Fog Unknown
7:44 PM 37.4 °F 34.9 °F 35.6 °F 93% 29.44 in 6.2 mi North 3.5 mph - N/A Fog Partly Cloudy
8:00 PM 38 °F - 37 °F 93%  in 31 mi North 2.2 mph - - Fog Light Fog
8:12 PM 37.4 °F 34.9 °F 37.4 °F 100% 29.44 in 6.2 mi NNW 3.5 mph - N/A   Partly Cloudy
8:41 PM 35.6 °F 32.8 °F 35.6 °F 100% 29.44 in 6.2 mi NNW 3.5 mph - N/A   Partly Cloudy
9:12 PM 37.4 °F - 35.6 °F 93% 29.44 in 6.2 mi North 2.3 mph - N/A   Partly Cloudy
9:40 PM 35.6 °F 32.8 °F 35.6 °F 100% 29.44 in 6.2 mi NNW 3.5 mph - N/A   Partly Cloudy
10:10 PM 35.6 °F 31.7 °F 33.8 °F 93% 29.44 in 6.2 mi North 4.6 mph - N/A   Partly Cloudy
10:40 PM 35.6 °F 32.8 °F 33.8 °F 93% 29.44 in - North 3.5 mph - N/A   Clear
11:10 PM 35.6 °F - 33.8 °F 93% 29.44 in - Calm Calm - N/A   Clear
11:40 PM 33.8 °F 30.8 °F 32.0 °F 93% 29.44 in - NNE 3.5 mph - N/A   Clear